RESURS DK-1 - Orbit

View from above orbital plane
View from above orbital plane
View from above satellite
View from above satellite

Ground track
Ground track

The orbit data is extracted from the following two-line orbital elements,

1 29228U 06021A   13144.14223773  .00001100  00000-0  96120-4 0  7750
2 29228 069.9364 271.0064 0002730 137.8420 280.3904 14.99924220385227
Epoch (UTC): 24 May 2013 03:24:49
Eccentricity: 0.0002730
inclination: 69.9364°
perigee height: 565 km
apogee height: 569 km
right ascension of ascending node: 271.0064°
argument of perigee: 137.8420°
revolutions per day: 14.99924220
mean anomaly at epoch: 280.3904°
orbit number at epoch: 38522

The dashed part of the orbit path shows where the satellite is in the earth's shadow,  

Developed and maintained by Chris Peat, Heavens-Above GmbH. Please read the updated FAQ before sending e-mail. Imprint. DLR